Regional Weather Roundup
Issued by NWS

Current Version | Previous Version | Text Only | Print | Product List | Glossary Off
Versions: 1 2 3 4 5 6 7 8 9 10 11 12 13 14 15 16 17 18 19 20 21 22 23 24 25 26 27 28 29 30 31 32 33 34 35 36 37 38 39 40 41 42 43 44 45 46 47 48 49 50

000
ASUS44 KBMX 221210
RWRAL

ALABAMA REGIONAL WEATHER ROUNDUP
NATIONAL WEATHER SERVICE BIRMINGHAM AL
700 AM CDT WED OCT 22 2014

NOTE: "FAIR" INDICATES FEW OR NO CLOUDS BELOW 12,000 FEET
WITH NO SIGNIFICANT WEATHER AND/OR OBSTRUCTIONS TO VISIBILITY.

THE REMARK "TC" DENOTES TEMPERATURE IN DEGREES CELSIUS.

ALZ001>011-014-016>018-020-221300-
NORTH ALABAMA

CITY           SKY/WX    TMP DP  RH WIND       PRES   REMARKS
MUSCLE SHOALS  CLEAR     49  41  74 NE3       30.19R
6HR MIN TEMP:  49; 6HR MAX TEMP:  58;

HUNTSVILLE     CLEAR     47  41  80 N5        30.17R
6HR MIN TEMP:  46; 6HR MAX TEMP:  57;

DECATUR        CLEAR     43  41  93 N3        30.18R
6HR MIN TEMP:  41; 6HR MAX TEMP:  54;

HALEYVILLE     FAIR      43  42  96 N5        30.19R
6HR MIN TEMP:  42; 6HR MAX TEMP:  51;

GADSDEN        CLEAR     45  39  81 N8        30.15R
6HR MIN TEMP:  43; 6HR MAX TEMP:  48;

$$

ALZ012-013-022-023-030>036-040>044-221300-
WEST CENTRAL ALABAMA

CITY           SKY/WX    TMP DP  RH WIND       PRES   REMARKS
TUSCALOOSA     CLEAR     50  46  86 CALM      30.14R
6HR MIN TEMP:  50; 6HR MAX TEMP:  54;

$$

ALZ015-024>027-033>036-040>044-221300-
CENTRAL ALABAMA

CITY           SKY/WX    TMP DP  RH WIND       PRES   REMARKS
BIRMINGHAM     CLEAR     49  43  80 NE3       30.16R
6HR MIN TEMP:  48; 6HR MAX TEMP:  53;

MONTGOMERY     CLEAR     53  47  79 N6        30.10R
6HR MIN TEMP:  49; 6HR MAX TEMP:  55;

SHELBY CO ARPT CLEAR     53  45  74 CALM      30.13R
6HR MIN TEMP:  52; 6HR MAX TEMP:  57;

MAXWELL AFB    CLEAR     52  48  89 N7        30.10R
6HR MIN TEMP:  50; 6HR MAX TEMP:  53;

GREENVILLE     FAIR      51  48  89 N5        30.09R
6HR MIN TEMP:  48; 6HR MAX TEMP:  54; 6HR PCP:  0.01;

$$

ALZ019-021-028-029-037-038-045>048-221300-
EAST CENTRAL ALABAMA

CITY           SKY/WX    TMP DP  RH WIND       PRES   REMARKS
ANNISTON       CLEAR     44  41  89 CALM      30.13R
6HR MIN TEMP:  41; 6HR MAX TEMP:  51;

ALEXANDER CITY CLEAR     51  45  79 N5        30.11S
6HR MIN TEMP:  49; 6HR MAX TEMP:  54;

AUBURN         CLEAR     48  39  71 N10       30.12R
6HR MIN TEMP:  48; 6HR MAX TEMP:  55;

$$

ALZ051>064-221300-
SOUTHWEST ALABAMA

CITY           SKY/WX    TMP DP  RH WIND       PRES   REMARKS
MOBILE         CLEAR     54  52  93 N5        30.07R
6HR MIN TEMP:  53; 6HR MAX TEMP:  59;

BROOKLEY FIELD CLEAR     54  53  97 N8        30.07R
6HR MIN TEMP:  53; 6HR MAX TEMP:  57;

EVERGREEN      CLEAR     48  46  93 CALM      30.09R FOG
6HR MIN TEMP:  48; 6HR MAX TEMP:  54;

$$

ALZ049-050-065>069-221300-
SOUTHEAST ALABAMA

CITY           SKY/WX    TMP DP  RH WIND       PRES   REMARKS
DOTHAN         CLEAR     50  48  93 N6        30.10R
6HR MIN TEMP:  49; 6HR MAX TEMP:  56;

OZARK          CLEAR     54  50  86 N6        30.07R
6HR MIN TEMP:  51; 6HR MAX TEMP:  60;

TROY           CLEAR     45  42  89 CALM      30.10R
6HR MIN TEMP:  44; 6HR MAX TEMP:  52;

EUFAULA        FAIR      48  46  93 CALM      30.08R FOG
6HR MIN TEMP:  48; 6HR MAX TEMP:  56; 6HR PCP:  0.01;

$$



USA.gov is the U.S. government's official web portal to all federal, state and local government web resources and services.